When you browse on this site, cookies collect data to enhance your experience and personalize the content and advertising you see.
Visit our Privacy Policy to learn more. By continuing to use the site, you agree to this use of cookies and data.
  • En España
  • Lista de países
  • Para 7 días
  • Temperatura del agua
  • El tiempo en el mapa
  • Informadores
  • user-avatar
    Iniciar sesión

    Tiempo cada hora Barkashni

    Hoy, 30 Mayo, Sábado

    Tiempo Temperatura Precipitaciones Viento Presión Humedad
    00:00 +12°C° 0 mm 5 mps 743 mmHg 88%
    01:00 +12°C° 0 mm 5 mps 743 mmHg 88%
    02:00 +12°C° 0 mm 5 mps 743 mmHg 89%
    03:00 +13°C° 0 mm 5 mps 742 mmHg 90%
    04:00 +13°C° 0 mm 5 mps 742 mmHg 90%
    05:00 +13°C° 0 mm 5 mps 742 mmHg 90%
    06:00 +13°C° 0 mm 5 mps 742 mmHg 89%
    07:00 +14°C° 0 mm 6 mps 742 mmHg 87%
    08:00 +14°C° 0 mm 6 mps 741 mmHg 85%
    09:00 +14°C° 0 mm 6 mps 741 mmHg 85%
    10:00 +14°C° 0 mm 6 mps 741 mmHg 85%
    11:00 +14°C° 0 mm 6 mps 741 mmHg 85%
    12:00 +14°C° 0.6 mm 7 mps 740 mmHg 87%
    13:00 +14°C° 0.6 mm 7 mps 740 mmHg 90%
    14:00 +12°C° 0.6 mm 8 mps 740 mmHg 92%
    15:00 +12°C° 0.8 mm 8 mps 739 mmHg 93%
    16:00 +12°C° 0.8 mm 8 mps 739 mmHg 94%
    17:00 +12°C° 0.8 mm 8 mps 738 mmHg 94%
    18:00 +12°C° 0.1 mm 9 mps 738 mmHg 93%
    19:00 +12°C° 0.1 mm 9 mps 738 mmHg 92%
    20:00 +12°C° 0.1 mm 9 mps 738 mmHg 91%
    21:00 +12°C° 0.4 mm 9 mps 738 mmHg 91%
    22:00 +12°C° 0.4 mm 8 mps 738 mmHg 91%
    23:00 +12°C° 0.4 mm 8 mps 738 mmHg 90%

    Mañana, 31 Mayo, Domingo

    Tiempo Temperatura Precipitaciones Viento Presión Humedad
    00:00 +12°C° 1.7 mm 8 mps 739 mmHg 92%
    01:00 +11°C° 1.7 mm 8 mps 739 mmHg 93%
    02:00 +11°C° 1.7 mm 8 mps 739 mmHg 95%
    03:00 +11°C° 2.4 mm 7 mps 739 mmHg 95%
    04:00 +10°C° 2.4 mm 7 mps 739 mmHg 95%
    05:00 +10°C° 2.4 mm 7 mps 739 mmHg 95%
    06:00 +10°C° 1.4 mm 7 mps 739 mmHg 94%
    07:00 +10°C° 1.4 mm 8 mps 740 mmHg 93%
    08:00 +9°C° 1.4 mm 8 mps 740 mmHg 93%
    09:00 +10°C° 0.4 mm 7 mps 740 mmHg 89%
    10:00 +10°C° 0.4 mm 7 mps 741 mmHg 85%
    11:00 +11°C° 0.4 mm 6 mps 741 mmHg 82%
    12:00 +13°C° 0.1 mm 6 mps 742 mmHg 76%
    13:00 +14°C° 0.1 mm 6 mps 742 mmHg 71%
    14:00 +15°C° 0.1 mm 6 mps 742 mmHg 65%
    15:00 +15°C° 0 mm 5 mps 742 mmHg 66%
    16:00 +14°C° 0 mm 5 mps 743 mmHg 66%
    17:00 +14°C° 0 mm 5 mps 743 mmHg 66%
    18:00 +13°C° 0 mm 5 mps 743 mmHg 68%
    19:00 +12°C° 0 mm 5 mps 744 mmHg 69%
    20:00 +11°C° 0 mm 4 mps 744 mmHg 70%
    21:00 +8°C° 0 mm 4 mps 744 mmHg 71%
    22:00 +7°C° 0 mm 4 mps 745 mmHg 72%
    23:00 +6°C° 0 mm 4 mps 745 mmHg 73%

    Pasado mañana, 1 Junio, Lunes

    Tiempo Temperatura Precipitaciones Viento Presión Humedad
    00:00 +5°C° 0 mm 4 mps 745 mmHg 75%
    01:00 +5°C° 0 mm 4 mps 745 mmHg 77%
    02:00 +4°C° 0 mm 4 mps 745 mmHg 79%
    03:00 +4°C° 0 mm 4 mps 745 mmHg 79%
    04:00 +4°C° 0 mm 4 mps 745 mmHg 78%
    05:00 +4°C° 0 mm 4 mps 745 mmHg 78%
    06:00 +5°C° 0 mm 5 mps 745 mmHg 73%
    07:00 +6°C° 0 mm 5 mps 745 mmHg 69%
    08:00 +7°C° 0 mm 5 mps 745 mmHg 64%
    09:00 +8°C° 0 mm 6 mps 745 mmHg 62%
    10:00 +9°C° 0 mm 6 mps 746 mmHg 60%
    11:00 +9°C° 0 mm 6 mps 746 mmHg 58%
    12:00 +9°C° 0 mm 6 mps 746 mmHg 60%
    13:00 +9°C° 0 mm 5 mps 746 mmHg 63%
    14:00 +9°C° 0 mm 5 mps 746 mmHg 65%
    15:00 +9°C° 0.1 mm 5 mps 746 mmHg 69%
    16:00 +10°C° 0.1 mm 4 mps 746 mmHg 74%
    17:00 +8°C° 0.1 mm 4 mps 746 mmHg 79%
    18:00 +9°C° 0.1 mm 3 mps 746 mmHg 80%
    19:00 +9°C° 0.1 mm 3 mps 746 mmHg 82%
    20:00 +8°C° 0.1 mm 2 mps 746 mmHg 83%
    21:00 +8°C° 0 mm 2 mps 746 mmHg 85%
    22:00 +7°C° 0 mm 3 mps 746 mmHg 87%
    23:00 +5°C° 0 mm 3 mps 746 mmHg 90%

    2 Junio, Martes

    Tiempo Temperatura Precipitaciones Viento Presión Humedad
    00:00 +5°C° 0 mm 3 mps 746 mmHg 90%
    01:00 +5°C° 0 mm 3 mps 745 mmHg 91%
    02:00 +4°C° 0 mm 3 mps 745 mmHg 92%
    03:00 +5°C° 0 mm 3 mps 745 mmHg 91%
    04:00 +5°C° 0 mm 4 mps 745 mmHg 89%
    05:00 +5°C° 0 mm 4 mps 745 mmHg 88%
    06:00 +7°C° 0 mm 4 mps 745 mmHg 80%
    07:00 +9°C° 0 mm 5 mps 745 mmHg 73%
    08:00 +10°C° 0 mm 5 mps 745 mmHg 66%
    09:00 +12°C° 0 mm 5 mps 745 mmHg 62%
    10:00 +14°C° 0 mm 6 mps 745 mmHg 58%
    11:00 +15°C° 0 mm 6 mps 745 mmHg 54%
    12:00 +15°C° 0 mm 6 mps 745 mmHg 55%
    13:00 +15°C° 0 mm 6 mps 744 mmHg 56%
    14:00 +15°C° 0 mm 5 mps 744 mmHg 56%
    15:00 +14°C° 0 mm 5 mps 744 mmHg 60%
    16:00 +14°C° 0 mm 5 mps 744 mmHg 63%
    17:00 +14°C° 0 mm 4 mps 744 mmHg 66%
    18:00 +12°C° 0 mm 4 mps 743 mmHg 71%
    19:00 +11°C° 0 mm 4 mps 743 mmHg 75%
    20:00 +10°C° 0 mm 3 mps 743 mmHg 80%
    21:00 +9°C° 0 mm 3 mps 743 mmHg 82%
    22:00 +9°C° 0 mm 3 mps 743 mmHg 85%
    23:00 +7°C° 0 mm 4 mps 743 mmHg 87%

    3 Junio, Miércoles

    Tiempo Temperatura Precipitaciones Viento Presión Humedad
    00:00 +8°C° 0 mm 4 mps 742 mmHg 85%
    01:00 +8°C° 0 mm 4 mps 742 mmHg 83%
    02:00 +8°C° 0 mm 5 mps 742 mmHg 81%
    03:00 +8°C° 0.1 mm 5 mps 741 mmHg 84%
    04:00 +8°C° 0.1 mm 5 mps 741 mmHg 87%
    05:00 +8°C° 0.1 mm 5 mps 741 mmHg 90%
    06:00 +8°C° 0.6 mm 5 mps 740 mmHg 92%
    07:00 +8°C° 0.6 mm 5 mps 740 mmHg 94%
    08:00 +9°C° 0.6 mm 5 mps 740 mmHg 96%
    09:00 +9°C° 1 mm 5 mps 740 mmHg 96%
    10:00 +9°C° 1 mm 5 mps 740 mmHg 96%
    11:00 +9°C° 1 mm 5 mps 740 mmHg 96%
    12:00 +10°C° 0.8 mm 5 mps 740 mmHg 96%
    13:00 +10°C° 0.8 mm 5 mps 740 mmHg 96%
    14:00 +12°C° 0.8 mm 4 mps 740 mmHg 96%
    15:00 +12°C° 0.1 mm 4 mps 740 mmHg 95%
    16:00 +13°C° 0.1 mm 4 mps 740 mmHg 94%
    17:00 +14°C° 0.1 mm 4 mps 740 mmHg 93%
    18:00 +13°C° 0.2 mm 4 mps 739 mmHg 94%
    19:00 +13°C° 0.2 mm 3 mps 739 mmHg 95%
    20:00 +14°C° 0.2 mm 2 mps 739 mmHg 96%
    21:00 +13°C° 0.2 mm 2 mps 739 mmHg 97%
    22:00 +13°C° 0.2 mm 2 mps 739 mmHg 97%
    23:00 +12°C° 0.2 mm 2 mps 740 mmHg 98%

    4 Junio, Jueves

    Tiempo Temperatura Precipitaciones Viento Presión Humedad
    00:00 +12°C° 0 mm 2 mps 739 mmHg 97%
    01:00 +12°C° 0 mm 1 mps 739 mmHg 97%
    02:00 +11°C° 0 mm 1 mps 739 mmHg 97%
    03:00 +11°C° 0 mm 1 mps 739 mmHg 96%
    04:00 +11°C° 0 mm 1 mps 739 mmHg 96%
    05:00 +11°C° 0 mm 1 mps 739 mmHg 95%
    06:00 +12°C° 0 mm 1 mps 739 mmHg 91%
    07:00 +14°C° 0 mm 2 mps 739 mmHg 87%
    08:00 +15°C° 0 mm 2 mps 739 mmHg 83%
    09:00 +16°C° 0.2 mm 2 mps 739 mmHg 77%
    10:00 +17°C° 0.2 mm 3 mps 739 mmHg 72%
    11:00 +18°C° 0.2 mm 3 mps 739 mmHg 66%
    12:00 +18°C° 0.2 mm 3 mps 739 mmHg 64%
    13:00 +18°C° 0.2 mm 3 mps 739 mmHg 63%
    14:00 +19°C° 0.2 mm 3 mps 739 mmHg 61%
    15:00 +19°C° 0.2 mm 3 mps 739 mmHg 64%
    16:00 +18°C° 0.2 mm 3 mps 739 mmHg 67%
    17:00 +18°C° 0.2 mm 3 mps 739 mmHg 70%
    18:00 +16°C° 0.2 mm 2 mps 739 mmHg 76%
    19:00 +15°C° 0.2 mm 2 mps 739 mmHg 83%
    20:00 +13°C° 0.2 mm 2 mps 739 mmHg 90%
    21:00 +13°C° 0 mm 2 mps 739 mmHg 91%
    22:00 +12°C° 0 mm 2 mps 739 mmHg 92%
    23:00 +11°C° 0 mm 1 mps 739 mmHg 93%
    Mostrar más